Content
SEND FEEDBACK

Daily
Averages
Monthly
Summary
United States of America

CAMP QUEZON, GUAM


Home > North America > United States > Guam
Elevation: 269 feet     Latitude: 13 28N     Longitude: 144 48E

WEATHER
 
SELECT A DAY
Number of Records: 209,379;   Date Range: 1/1/95 - 9/21/14
 
SHARE

PRINT THIS DATA

[ ← Previous Day ]
WEATHER ALMANAC - AUGUST 14, 2013
[ Next Day → ]
[ °C ]   °F
Weather ElementAverageHighLow
Temperature82 °F86 °F (10:28 am)77 °F (6:54 am)
Dewpoint75.9 °F78.1 °F (8:54 am)75 °F (10:54 am)
Humidity82.3 %96 % (1:54 am)70 % (12:17 pm)
Barometer29.85 in29.90 in (9:51 am)29.80 in (2:54 pm)
Wind Speed3.2 mph8.1 mph (7:54 am)
Weather ElementAverage
Visibility9.9 mi
Wind DirectionENE (66.7 °)

Weather ElementTotal
Precipitation0.03 in
Cooling Degree Days16.5 (Base 65)
Growing Degree Days31.5 (Base 50)
Averaged from 27 records on August 14, 2013
WEATHER CONDITIONS BREAKOUT
WIND DIRECTION BREAKOUT
WEATHER BY HOUR - AUGUST 14, 2013
[ °C ]   °F
Local TimeTemperatureDewpointHumidityBarometerVisibilityWind DirectionWind SpeedGust SpeedPrecipitationEventsConditions
1:54 AM78.1 °F77.0 °F96 %29.83 in10.0 miCalmClear
2:54 AM78.1 °F75.9 °F93 %29.83 in10.0 miCalmClear
3:54 AM78.1 °F75.9 °F93 %29.83 in10.0 miCalmClear
4:54 AM78.1 °F75.9 °F93 %29.82 in10.0 miCalmClear
5:54 AM78.1 °F75.9 °F93 %29.83 in10.0 miCalmPartly Cloudy
6:54 AM77.0 °F75.9 °F96 %29.85 in10.0 miCalmPartly Cloudy
7:54 AM79.0 °F77.0 °F94 %29.87 in6.0 miEast (100°)8.1 mph0.01 inRainLight Rain
8:54 AM80.1 °F78.1 °F94 %29.87 in10.0 miCalm0.02 inRainLight Rain
9:51 AM84.2 °F77.0 °F79 %29.90 in10.0 miNNW (330°)3.5 mph0.00 inMostly Cloudy
9:54 AM84.0 °F77.0 °F79 %29.88 in10.0 miVariable3.5 mph0.00 inMostly Cloudy
10:28 AM86.0 °F77.0 °F74 %29.88 in10.0 miVariable3.5 mphMostly Cloudy
10:54 AM82.9 °F75.0 °F77 %29.86 in10.0 miNorth (360°)5.8 mph0.00 inOvercast
11:38 AM84.2 °F75.2 °F74 %29.87 in10.0 miVariable3.5 mphOvercast
11:54 AM86.0 °F77.0 °F74 %29.84 in10.0 miEast (100°)8.1 mphMostly Cloudy
12:17 PM86.0 °F75.2 °F70 %29.86 in10.0 miSE (130°)5.8 mphScattered Clouds
12:54 PM86.0 °F75.9 °F72 %29.82 in10.0 miESE (120°)8.1 mphScattered Clouds
1:54 PM86.0 °F77.0 °F74 %29.81 in10.0 miESE (110°)6.9 mphPartly Cloudy
2:54 PM86.0 °F75.9 °F72 %29.80 in10.0 miVariable6.9 mphScattered Clouds
3:54 PM86.0 °F75.0 °F70 %29.81 in10.0 miSE (140°)6.9 mphPartly Cloudy
4:54 PM84.9 °F75.0 °F72 %29.81 in10.0 miSE (140°)6.9 mphClear
5:54 PM84.0 °F75.0 °F74 %29.83 in10.0 miSE (130°)4.6 mphClear
6:54 PM82.9 °F75.9 °F79 %29.84 in10.0 miSE (140°)3.5 mphClear
7:54 PM82.0 °F75.0 °F79 %29.86 in10.0 miCalmClear
8:54 PM81.0 °F75.9 °F85 %29.87 in10.0 miCalmClear
9:54 PM81.0 °F75.0 °F82 %29.88 in10.0 miCalmClear
10:54 PM78.1 °F75.0 °F90 %29.88 in10.0 miCalmClear
11:54 PM77.0 °F75.0 °F94 %29.87 in10.0 miCalmPartly Cloudy
Hourly data recorded from PGUM, located miles away from Camp Quezon, Guam







STORIES FROM OUR PARTNERS